• Our mission is to promote and protect San Carlos Airport and its flight operations, and to enhance the safety and spirit of general aviation through participation in local community activities.


  • The San Carlos Airport Association (SCAPA) has represented pilots and friends of the Airport since our founding in 1986.

Live View of San Carlos Airport (SQL)

San Carlos METAR

  • KSQL 241955Z 19013G19KT 10SM FEW034 SCT060 OVC120 19/09 A2998

    A METAR describes the current weather at an airport. Click here to learn how to read a METAR.

SQL Notams

  • Click here and enter KSQL in the Locations box to read the Notices to Airmen (Notams) about San Carlos Airport.

ASOS from Half Moon Bay Airport (HAF)



  • Email: webmaster at sancarlosairport.org
  • Our mailing address:
    San Carlos Airport Association
    P.O. Box 1183
    San Carlos, CA 94070

Archive for December, 2012

Printed copies of the KSQL IFR Departure Guidance document are now available in the Airport office.

San Carlos Airport


Click here for 8.5×11 format.

Click here for 5.5×7.5 Jepp format.

posted by Administrator3 Dec 07, 2012  09:12 AM
read (0 comments)